| time (UTC) | temp F | wind direction | speed MPH | gust MPH | rain 1hr in | rain 24hr in | rain mn in | humidity % | barometer mb |
| 20260508094603 | 37 | 128 | 2.0 | 4.0 | 0.00 | 0.00 | 0.00 | 55 | 1008.6 |
| 20260508094055 | 37 | 126 | 2.0 | 3.0 | 0.00 | 0.00 | 0.00 | 55 | 1008.4 |
| 20260508093559 | 37 | 126 | 2.0 | 3.0 | 0.00 | 0.00 | 0.00 | 55 | 1008.5 |
| 20260508093059 | 37 | 126 | 2.0 | 4.0 | 0.00 | 0.00 | 0.00 | 55 | 1008.4 |
| 20260508092558 | 37 | 126 | 2.0 | 4.0 | 0.00 | 0.00 | 0.00 | 55 | 1008.3 |
| 20260508092055 | 37 | 125 | 2.0 | 4.0 | 0.00 | 0.00 | 0.00 | 54 | 1008.4 |
| 20260508091606 | 37 | 132 | 2.0 | 3.0 | 0.00 | 0.00 | 0.00 | 54 | 1008.5 |
| 20260508091058 | 37 | 138 | 2.0 | 3.0 | 0.00 | 0.00 | 0.00 | 54 | 1008.5 |
| 20260508090559 | 37 | 142 | 1.0 | 3.0 | 0.00 | 0.00 | 0.00 | 54 | 1008.5 |
| 20260508090110 | 37 | 143 | 1.0 | 2.0 | 0.00 | 0.00 | 0.00 | 55 | 1008.5 |
| 20260508085554 | 38 | 154 | 0.0 | 3.0 | 0.00 | 0.00 | 0.00 | 55 | 1008.5 |
| 20260508085054 | 38 | 173 | 0.0 | 3.0 | 0.00 | 0.00 | 0.00 | 54 | 1008.6 |
| 20260508084556 | 38 | 132 | 0.0 | 3.0 | 0.00 | 0.00 | 0.00 | 54 | 1008.5 |
| 20260508084055 | 38 | 0 | 0.0 | 2.0 | 0.00 | 0.00 | 0.00 | 54 | 1008.7 |
| 20260508083558 | 38 | 0 | 0.0 | 3.0 | 0.00 | 0.00 | 0.00 | 54 | 1008.7 |
| 20260508083058 | 38 | 0 | 0.0 | 4.0 | 0.00 | 0.00 | 0.00 | 54 | 1008.7 |
| 20260508082555 | 38 | 0 | 1.0 | 4.0 | 0.00 | 0.00 | 0.00 | 54 | 1008.7 |
| 20260508082055 | 38 | 0 | 0.0 | 2.0 | 0.00 | 0.00 | 0.00 | 54 | 1008.8 |
| 20260508081609 | 38 | 0 | 0.0 | 3.0 | 0.00 | 0.00 | 0.00 | 53 | 1008.8 |
| 20260508081059 | 38 | 143 | 1.0 | 3.0 | 0.00 | 0.00 | 0.00 | 53 | 1008.8 |
| 20260508080555 | 38 | 143 | 0.0 | 2.0 | 0.00 | 0.00 | 0.00 | 52 | 1008.9 |
| 20260508075601 | 39 | 0 | 0.0 | 3.0 | 0.00 | 0.00 | 0.00 | 51 | 1009.0 |
| 20260508075057 | 39 | 144 | 0.0 | 3.0 | 0.00 | 0.00 | 0.00 | 51 | 1008.9 |
| 20260508074558 | 39 | 141 | 0.0 | 3.0 | 0.00 | 0.00 | 0.00 | 51 | 1009.0 |
| 20260508074055 | 39 | 139 | 1.0 | 3.0 | 0.00 | 0.00 | 0.00 | 51 | 1009.0 |
| 20260508073555 | 39 | 128 | 1.0 | 3.0 | 0.00 | 0.00 | 0.00 | 50 | 1009.1 |
| 20260508073105 | 40 | 128 | 0.0 | 3.0 | 0.00 | 0.00 | 0.00 | 50 | 1009.1 |
| 20260508072558 | 40 | 127 | 1.0 | 3.0 | 0.00 | 0.00 | 0.00 | 50 | 1009.2 |
| 20260508072058 | 40 | 117 | 1.0 | 3.0 | 0.00 | 0.00 | 0.00 | 50 | 1009.1 |
| 20260508071622 | 40 | 117 | 1.0 | 2.0 | 0.00 | 0.00 | 0.00 | 50 | 1009.2 |
| 20260508071058 | 40 | 0 | 0.0 | 2.0 | 0.00 | 0.00 | 0.00 | 50 | 1009.1 |
| 20260508070558 | 40 | 117 | 0.0 | 2.0 | 0.00 | 0.00 | 0.00 | 50 | 1009.1 |
| 20260508065555 | 40 | 117 | 1.0 | 3.0 | 0.00 | 0.00 | 0.00 | 49 | 1009.3 |
| 20260508065058 | 41 | 115 | 1.0 | 2.0 | 0.00 | 0.00 | 0.00 | 48 | 1009.3 |
| 20260508064600 | 41 | 117 | 1.0 | 2.0 | 0.00 | 0.00 | 0.00 | 48 | 1009.4 |
| 20260508064057 | 41 | 0 | 0.0 | 2.0 | 0.00 | 0.00 | 0.00 | 48 | 1009.4 |
| 20260508063556 | 41 | 117 | 0.0 | 2.0 | 0.00 | 0.00 | 0.00 | 48 | 1009.4 |
| 20260508063056 | 41 | 117 | 0.0 | 2.0 | 0.00 | 0.00 | 0.00 | 48 | 1009.5 |
| 20260508062555 | 41 | 117 | 1.0 | 2.0 | 0.00 | 0.00 | 0.00 | 48 | 1009.4 |
| 20260508062058 | 42 | 0 | 0.0 | 3.0 | 0.00 | 0.00 | 0.00 | 48 | 1009.4 |
| 20260508061558 | 42 | 117 | 1.0 | 3.0 | 0.00 | 0.00 | 0.00 | 47 | 1009.5 |
| 20260508061058 | 42 | 117 | 1.0 | 3.0 | 0.00 | 0.00 | 0.00 | 48 | 1009.5 |
| 20260508060558 | 42 | 117 | 1.0 | 3.0 | 0.00 | 0.00 | 0.00 | 46 | 1009.5 |
| 20260508060055 | 42 | 116 | 1.0 | 4.0 | 0.00 | 0.00 | 0.00 | 46 | 1009.6 |
| 20260508055601 | 42 | 0 | 0.0 | 4.0 | 0.00 | 0.00 | 0.00 | 46 | 1009.5 |
| 20260508055055 | 42 | 119 | 2.0 | 4.0 | 0.00 | 0.00 | 0.00 | 46 | 1009.5 |
| 20260508054608 | 42 | 121 | 1.0 | 4.0 | 0.00 | 0.00 | 0.00 | 46 | 1009.5 |
| 20260508054054 | 42 | 123 | 2.0 | 4.0 | 0.00 | 0.00 | 0.00 | 45 | 1009.6 |
| 20260508053559 | 42 | 125 | 1.0 | 4.0 | 0.00 | 0.00 | 0.00 | 45 | 1009.6 |
| 20260508053057 | 42 | 96 | 0.0 | 2.0 | 0.00 | 0.00 | 0.00 | 45 | 1009.6 |
| 20260508052556 | 42 | 92 | 0.0 | 2.0 | 0.00 | 0.00 | 0.00 | 45 | 1009.6 |
| 20260508052058 | 42 | 0 | 0.0 | 2.0 | 0.00 | 0.00 | 0.00 | 46 | 1009.7 |
| 20260508051609 | 42 | 0 | 0.0 | 2.0 | 0.00 | 0.00 | 0.00 | 45 | 1009.7 |
| 20260508051058 | 42 | 92 | 0.0 | 3.0 | 0.00 | 0.00 | 0.00 | 45 | 1009.7 |
| 20260508050555 | 42 | 92 | 1.0 | 3.0 | 0.00 | 0.00 | 0.00 | 45 | 1009.7 |
| 20260508045558 | 42 | 92 | 1.0 | 3.0 | 0.00 | 0.00 | 0.00 | 45 | 1009.7 |
| 20260508045055 | 43 | 92 | 1.0 | 3.0 | 0.00 | 0.00 | 0.00 | 45 | 1009.8 |
| 20260508044601 | 43 | 0 | 1.0 | 3.0 | 0.00 | 0.00 | 0.00 | 45 | 1009.8 |
| 20260508044058 | 43 | 84 | 2.0 | 3.0 | 0.00 | 0.00 | 0.00 | 44 | 1009.8 |
| 20260508043558 | 44 | 84 | 1.0 | 3.0 | 0.00 | 0.00 | 0.00 | 43 | 1009.9 |
| 20260508043056 | 44 | 91 | 1.0 | 3.0 | 0.00 | 0.00 | 0.00 | 43 | 1009.8 |
| 20260508042601 | 44 | 113 | 0.0 | 3.0 | 0.00 | 0.00 | 0.00 | 42 | 1009.8 |
| 20260508042055 | 45 | 114 | 1.0 | 3.0 | 0.00 | 0.00 | 0.00 | 42 | 1009.8 |
| 20260508041558 | 45 | 82 | 1.0 | 3.0 | 0.00 | 0.00 | 0.00 | 42 | 1009.9 |
| 20260508041058 | 45 | 82 | 2.0 | 3.0 | 0.00 | 0.00 | 0.00 | 42 | 1010.0 |
| 20260508040555 | 46 | 82 | 1.0 | 2.0 | 0.00 | 0.00 | 0.00 | 42 | 1010.0 |
| 20260508040100 | 46 | 42 | 0.0 | 2.0 | 0.00 | 0.00 | 0.00 | 42 | 1010.0 |
| 20260508035558 | 46 | 42 | 1.0 | 2.0 | 0.00 | 0.00 | 0.00 | 42 | 1010.0 |
| 20260508035058 | 46 | 42 | 1.0 | 3.0 | 0.00 | 0.00 | 0.00 | 42 | 1010.0 |
| 20260508034558 | 47 | 42 | 1.0 | 3.0 | 0.00 | 0.00 | 0.00 | 42 | 1010.0 |
| 20260508034054 | 47 | 42 | 1.0 | 3.0 | 0.00 | 0.00 | 0.00 | 42 | 1010.0 |
| 20260508033557 | 47 | 41 | 0.0 | 3.0 | 0.00 | 0.00 | 0.00 | 42 | 1010.0 |
| 20260508033115 | 48 | 41 | 0.0 | 3.0 | 0.00 | 0.00 | 0.00 | 41 | 1010.0 |
| 20260508032555 | 48 | 47 | 1.0 | 3.0 | 0.00 | 0.00 | 0.00 | 40 | 1010.0 |
| 20260508032058 | 49 | 49 | 0.0 | 1.0 | 0.00 | 0.00 | 0.00 | 39 | 1010.1 |
| 20260508031558 | 49 | 0 | 0.0 | 1.0 | 0.00 | 0.00 | 0.00 | 38 | 1010.0 |
| 20260508031057 | 50 | 0 | 0.0 | 2.0 | 0.00 | 0.00 | 0.00 | 37 | 1010.0 |
| 20260508030555 | 50 | 0 | 0.0 | 2.0 | 0.00 | 0.00 | 0.00 | 37 | 1010.0 |
| 20260508030109 | 50 | 0 | 0.0 | 2.0 | 0.00 | 0.00 | 0.00 | 37 | 1010.0 |
| 20260508025555 | 51 | 0 | 0.0 | 2.0 | 0.00 | 0.00 | 0.00 | 38 | 1010.0 |
| 20260508025055 | 51 | 0 | 0.0 | 2.0 | 0.00 | 0.00 | 0.00 | 36 | 1009.9 |
| 20260508024620 | 52 | 276 | 0.0 | 2.0 | 0.00 | 0.00 | 0.00 | 36 | 1010.0 |
| 20260508024057 | 52 | 276 | 0.0 | 1.0 | 0.00 | 0.00 | 0.00 | 35 | 1010.0 |
| 20260508023555 | 53 | 0 | 0.0 | 1.0 | 0.00 | 0.00 | 0.00 | 34 | 1010.0 |
| 20260508023055 | 53 | 0 | 0.0 | 1.0 | 0.00 | 0.00 | 0.00 | 33 | 1010.0 |
| 20260508022558 | 53 | 0 | 0.0 | 2.0 | 0.00 | 0.00 | 0.00 | 31 | 1010.0 |
| 20260508022056 | 54 | 0 | 0.0 | 2.0 | 0.00 | 0.00 | 0.00 | 31 | 1010.0 |
| 20260508021557 | 54 | 0 | 0.0 | 2.0 | 0.00 | 0.00 | 0.00 | 31 | 1010.0 |
| 20260508021056 | 55 | 294 | 0.0 | 2.0 | 0.00 | 0.00 | 0.00 | 30 | 1010.0 |
| 20260508020555 | 55 | 294 | 1.0 | 3.0 | 0.00 | 0.00 | 0.00 | 30 | 1010.0 |
| 20260508020110 | 56 | 294 | 0.0 | 3.0 | 0.00 | 0.00 | 0.00 | 29 | 1009.9 |
| 20260508015555 | 56 | 0 | 0.0 | 6.0 | 0.00 | 0.00 | 0.00 | 29 | 1009.8 |
| 20260508015055 | 57 | 279 | 2.0 | 6.0 | 0.00 | 0.00 | 0.00 | 29 | 1009.9 |
| 20260508014620 | 57 | 275 | 1.0 | 4.0 | 0.00 | 0.00 | 0.00 | 29 | 1009.8 |
| 20260508014056 | 57 | 271 | 2.0 | 6.0 | 0.00 | 0.00 | 0.00 | 28 | 1009.7 |
| 20260508013555 | 58 | 274 | 2.0 | 6.0 | 0.00 | 0.00 | 0.00 | 28 | 1009.6 |
| 20260508013107 | 58 | 265 | 2.0 | 7.0 | 0.00 | 0.00 | 0.00 | 27 | 1009.6 |
| 20260508012555 | 58 | 261 | 2.0 | 7.0 | 0.00 | 0.00 | 0.00 | 27 | 1009.6 |
| 20260508012055 | 58 | 278 | 2.0 | 7.0 | 0.00 | 0.00 | 0.00 | 27 | 1009.6 |
| 20260508011600 | 59 | 268 | 3.0 | 7.0 | 0.00 | 0.00 | 0.00 | 26 | 1009.5 |
| 20260508011057 | 59 | 277 | 3.0 | 8.0 | 0.00 | 0.00 | 0.00 | 26 | 1009.4 |
| 20260508010555 | 59 | 266 | 4.0 | 8.0 | 0.00 | 0.00 | 0.00 | 26 | 1009.4 |
| 20260508010106 | 59 | 259 | 4.0 | 9.0 | 0.00 | 0.00 | 0.00 | 26 | 1009.4 |
| 20260508005554 | 60 | 275 | 4.0 | 9.0 | 0.00 | 0.00 | 0.00 | 26 | 1009.3 |
| 20260508005058 | 60 | 265 | 5.0 | 14.0 | 0.00 | 0.00 | 0.00 | 25 | 1009.2 |
| 20260508004556 | 60 | 265 | 3.0 | 14.0 | 0.00 | 0.00 | 0.00 | 26 | 1009.2 |
| 20260508004055 | 60 | 302 | 7.0 | 13.0 | 0.00 | 0.00 | 0.00 | 25 | 1009.2 |
| 20260508003554 | 61 | 277 | 5.0 | 11.0 | 0.00 | 0.00 | 0.00 | 25 | 1009.1 |
| 20260508003056 | 61 | 269 | 6.0 | 11.0 | 0.00 | 0.00 | 0.00 | 25 | 1009.1 |
| 20260508002555 | 61 | 271 | 4.0 | 10.0 | 0.00 | 0.00 | 0.00 | 25 | 1009.1 |
| 20260508002055 | 62 | 281 | 6.0 | 11.0 | 0.00 | 0.00 | 0.00 | 25 | 1009.1 |
| 20260508001602 | 62 | 244 | 5.0 | 11.0 | 0.00 | 0.00 | 0.00 | 25 | 1009.1 |
| 20260508001058 | 62 | 251 | 4.0 | 10.0 | 0.00 | 0.00 | 0.00 | 25 | 1009.1 |
| 20260508000555 | 62 | 271 | 2.0 | 10.0 | 0.00 | 0.00 | 0.00 | 26 | 1009.1 |
| 20260507235558 | 62 | 279 | 5.0 | 14.0 | 0.00 | 0.00 | 0.00 | 26 | 1009.2 |
| 20260507235057 | 62 | 256 | 7.0 | 14.0 | 0.00 | 0.00 | 0.00 | 26 | 1009.1 |
| 20260507234555 | 62 | 258 | 6.0 | 14.0 | 0.00 | 0.00 | 0.00 | 25 | 1009.1 |
| 20260507234057 | 62 | 304 | 4.0 | 11.0 | 0.00 | 0.00 | 0.00 | 26 | 1009.2 |
| 20260507233555 | 62 | 238 | 6.0 | 11.0 | 0.00 | 0.00 | 0.00 | 25 | 1009.3 |
| 20260507233058 | 62 | 309 | 3.0 | 9.0 | 0.00 | 0.00 | 0.00 | 26 | 1009.3 |
| 20260507232554 | 62 | 251 | 2.0 | 9.0 | 0.00 | 0.00 | 0.00 | 27 | 1009.4 |
| 20260507232055 | 62 | 304 | 4.0 | 14.0 | 0.00 | 0.00 | 0.00 | 26 | 1009.4 |
| 20260507231557 | 62 | 309 | 5.0 | 14.0 | 0.00 | 0.00 | 0.00 | 26 | 1009.4 |
| 20260507231101 | 62 | 287 | 5.0 | 11.0 | 0.00 | 0.00 | 0.00 | 27 | 1009.3 |
| 20260507230601 | 62 | 297 | 5.0 | 11.0 | 0.00 | 0.00 | 0.00 | 27 | 1009.4 |
| 20260507230057 | 62 | 294 | 3.0 | 10.0 | 0.00 | 0.00 | 0.00 | 28 | 1009.4 |
| 20260507225558 | 62 | 300 | 3.0 | 10.0 | 0.00 | 0.00 | 0.00 | 29 | 1009.4 |
| 20260507225058 | 62 | 324 | 4.0 | 10.0 | 0.00 | 0.00 | 0.00 | 27 | 1009.4 |
| 20260507224559 | 62 | 292 | 5.0 | 13.0 | 0.00 | 0.00 | 0.00 | 27 | 1009.5 |
| 20260507224058 | 62 | 306 | 5.0 | 15.0 | 0.00 | 0.00 | 0.00 | 27 | 1009.4 |
| 20260507223558 | 62 | 314 | 6.0 | 15.0 | 0.00 | 0.00 | 0.00 | 27 | 1009.5 |
| 20260507223058 | 62 | 279 | 5.0 | 16.0 | 0.00 | 0.00 | 0.00 | 28 | 1009.5 |
| 20260507222558 | 63 | 273 | 8.0 | 16.0 | 0.00 | 0.00 | 0.00 | 27 | 1009.5 |
| 20260507222057 | 63 | 288 | 4.0 | 14.0 | 0.00 | 0.00 | 0.00 | 28 | 1009.6 |
| 20260507221555 | 63 | 318 | 4.0 | 14.0 | 0.00 | 0.00 | 0.00 | 27 | 1009.5 |
| 20260507221056 | 63 | 329 | 5.0 | 14.0 | 0.00 | 0.00 | 0.00 | 28 | 1009.5 |
| 20260507220557 | 63 | 300 | 3.0 | 9.0 | 0.00 | 0.00 | 0.00 | 27 | 1009.6 |
| 20260507220059 | 63 | 271 | 3.0 | 10.0 | 0.00 | 0.00 | 0.00 | 28 | 1009.7 |
| 20260507215555 | 63 | 283 | 1.0 | 13.0 | 0.00 | 0.00 | 0.00 | 27 | 1009.6 |
| 20260507215056 | 63 | 279 | 5.0 | 13.0 | 0.00 | 0.00 | 0.00 | 27 | 1009.7 |
| 20260507214557 | 63 | 273 | 5.0 | 10.0 | 0.00 | 0.00 | 0.00 | 29 | 1009.7 |
| 20260507214100 | 63 | 261 | 5.0 | 10.0 | 0.00 | 0.00 | 0.00 | 27 | 1009.7 |
| 20260507213601 | 63 | 55 | 3.0 | 10.0 | 0.00 | 0.00 | 0.00 | 26 | 1009.7 |
| 20260507213101 | 63 | 295 | 5.0 | 12.0 | 0.00 | 0.00 | 0.00 | 27 | 1009.8 |
| 20260507212558 | 63 | 324 | 3.0 | 12.0 | 0.00 | 0.00 | 0.00 | 30 | 1009.8 |
| 20260507212058 | 63 | 300 | 5.0 | 12.0 | 0.00 | 0.00 | 0.00 | 28 | 1009.9 |
| 20260507211555 | 63 | 314 | 5.0 | 16.0 | 0.00 | 0.00 | 0.00 | 28 | 1010.0 |
| 20260507211057 | 63 | 260 | 7.0 | 16.0 | 0.00 | 0.00 | 0.00 | 28 | 1010.0 |
| 20260507210557 | 63 | 311 | 4.0 | 13.0 | 0.00 | 0.00 | 0.00 | 27 | 1009.9 |
| 20260507210056 | 63 | 267 | 7.0 | 13.0 | 0.00 | 0.00 | 0.00 | 26 | 1010.0 |
| 20260507205558 | 63 | 254 | 7.0 | 13.0 | 0.00 | 0.00 | 0.00 | 26 | 1010.0 |
| 20260507205056 | 63 | 281 | 2.0 | 13.0 | 0.00 | 0.00 | 0.00 | 27 | 1010.0 |
| 20260507204602 | 63 | 303 | 3.0 | 13.0 | 0.00 | 0.00 | 0.00 | 26 | 1010.0 |
| 20260507204057 | 63 | 254 | 5.0 | 13.0 | 0.00 | 0.00 | 0.00 | 25 | 1010.0 |
| 20260507203558 | 63 | 268 | 4.0 | 10.0 | 0.00 | 0.00 | 0.00 | 25 | 1010.2 |
| 20260507203059 | 63 | 254 | 4.0 | 11.0 | 0.00 | 0.00 | 0.00 | 27 | 1010.2 |
| 20260507202555 | 63 | 290 | 5.0 | 11.0 | 0.00 | 0.00 | 0.00 | 24 | 1010.2 |
| 20260507202058 | 63 | 217 | 3.0 | 12.0 | 0.00 | 0.00 | 0.00 | 24 | 1010.2 |
| 20260507201557 | 63 | 311 | 6.0 | 12.0 | 0.00 | 0.00 | 0.00 | 27 | 1010.2 |
| 20260507201058 | 63 | 265 | 5.0 | 9.0 | 0.00 | 0.00 | 0.00 | 26 | 1010.2 |
| 20260507200607 | 63 | 248 | 2.0 | 8.0 | 0.00 | 0.00 | 0.00 | 28 | 1010.2 |
| 20260507200105 | 63 | 109 | 2.0 | 14.0 | 0.00 | 0.00 | 0.00 | 26 | 1010.3 |
| 20260507195556 | 63 | 255 | 5.0 | 14.0 | 0.00 | 0.00 | 0.00 | 27 | 1010.4 |
| 20260507195056 | 63 | 287 | 5.0 | 12.0 | 0.00 | 0.00 | 0.00 | 26 | 1010.3 |
| 20260507194603 | 63 | 292 | 6.0 | 15.0 | 0.00 | 0.00 | 0.00 | 29 | 1010.4 |
| 20260507194058 | 63 | 294 | 4.0 | 15.0 | 0.00 | 0.00 | 0.00 | 27 | 1010.3 |
| 20260507193555 | 63 | 318 | 4.0 | 16.0 | 0.00 | 0.00 | 0.00 | 27 | 1010.4 |
| 20260507193101 | 63 | 264 | 8.0 | 16.0 | 0.00 | 0.00 | 0.00 | 27 | 1010.4 |
| 20260507192556 | 63 | 279 | 6.0 | 12.0 | 0.00 | 0.00 | 0.00 | 27 | 1010.3 |
| 20260507192058 | 63 | 288 | 3.0 | 15.0 | 0.00 | 0.00 | 0.00 | 27 | 1010.3 |
| 20260507191604 | 62 | 283 | 5.0 | 15.0 | 0.00 | 0.00 | 0.00 | 29 | 1010.3 |
| 20260507191058 | 62 | 319 | 5.0 | 15.0 | 0.00 | 0.00 | 0.00 | 28 | 1010.2 |
| 20260507190558 | 62 | 288 | 5.0 | 15.0 | 0.00 | 0.00 | 0.00 | 27 | 1010.3 |
| 20260507190059 | 62 | 346 | 5.0 | 15.0 | 0.00 | 0.00 | 0.00 | 28 | 1010.2 |
| 20260507185558 | 62 | 280 | 4.0 | 15.0 | 0.00 | 0.00 | 0.00 | 28 | 1010.3 |
| 20260507185057 | 62 | 311 | 5.0 | 11.0 | 0.00 | 0.00 | 0.00 | 30 | 1010.3 |
| 20260507184600 | 61 | 321 | 3.0 | 15.0 | 0.00 | 0.00 | 0.00 | 32 | 1010.3 |
| 20260507184059 | 61 | 298 | 3.0 | 15.0 | 0.00 | 0.00 | 0.00 | 31 | 1010.4 |
| 20260507183558 | 61 | 5 | 8.0 | 17.0 | 0.00 | 0.00 | 0.00 | 28 | 1010.5 |
| 20260507183107 | 61 | 250 | 9.0 | 17.0 | 0.00 | 0.00 | 0.00 | 29 | 1010.4 |
| 20260507182558 | 61 | 275 | 4.0 | 18.0 | 0.00 | 0.00 | 0.00 | 28 | 1010.4 |
| 20260507182058 | 61 | 296 | 7.0 | 18.0 | 0.00 | 0.00 | 0.00 | 27 | 1010.7 |
| 20260507181559 | 61 | 300 | 6.0 | 15.0 | 0.00 | 0.00 | 0.00 | 28 | 1010.5 |
| 20260507181100 | 61 | 323 | 5.0 | 15.0 | 0.00 | 0.00 | 0.00 | 28 | 1010.7 |
| 20260507180558 | 61 | 273 | 6.0 | 14.0 | 0.00 | 0.00 | 0.00 | 30 | 1010.8 |
| 20260507180100 | 61 | 309 | 7.0 | 14.0 | 0.00 | 0.00 | 0.00 | 30 | 1011.0 |
| 20260507175557 | 61 | 300 | 4.0 | 14.0 | 0.00 | 0.00 | 0.00 | 29 | 1011.0 |
| 20260507175058 | 61 | 261 | 5.0 | 14.0 | 0.00 | 0.00 | 0.00 | 30 | 1011.1 |
| 20260507174556 | 61 | 263 | 6.0 | 14.0 | 0.00 | 0.00 | 0.00 | 30 | 1011.1 |
| 20260507174057 | 60 | 244 | 4.0 | 11.0 | 0.00 | 0.00 | 0.00 | 30 | 1011.2 |
| 20260507173556 | 60 | 273 | 6.0 | 11.0 | 0.00 | 0.00 | 0.00 | 30 | 1011.1 |
| 20260507173106 | 59 | 319 | 2.0 | 9.0 | 0.00 | 0.00 | 0.00 | 31 | 1011.3 |
| 20260507172602 | 59 | 275 | 4.0 | 9.0 | 0.00 | 0.00 | 0.00 | 30 | 1011.2 |
| 20260507172058 | 58 | 268 | 1.0 | 8.0 | 0.00 | 0.00 | 0.00 | 37 | 1011.2 |
| 20260507171558 | 58 | 220 | 3.0 | 11.0 | 0.00 | 0.00 | 0.00 | 30 | 1011.3 |
| 20260507171058 | 58 | 236 | 3.0 | 11.0 | 0.00 | 0.00 | 0.00 | 32 | 1011.4 |
| 20260507170558 | 58 | 28 | 2.0 | 8.0 | 0.00 | 0.00 | 0.00 | 32 | 1011.3 |
| 20260507170057 | 58 | 217 | 2.0 | 11.0 | 0.00 | 0.00 | 0.00 | 33 | 1011.4 |
| 20260507165558 | 58 | 78 | 3.0 | 11.0 | 0.00 | 0.00 | 0.00 | 33 | 1011.4 |
| 20260507165057 | 57 | 310 | 1.0 | 6.0 | 0.00 | 0.00 | 0.00 | 34 | 1011.4 |
| 20260507164556 | 57 | 184 | 2.0 | 6.0 | 0.00 | 0.00 | 0.00 | 31 | 1011.3 |
| 20260507164057 | 57 | 321 | 3.0 | 9.0 | 0.00 | 0.00 | 0.00 | 32 | 1011.5 |
| 20260507163558 | 57 | 272 | 3.0 | 9.0 | 0.00 | 0.00 | 0.00 | 33 | 1011.4 |
| 20260507163059 | 58 | 19 | 5.0 | 10.0 | 0.00 | 0.00 | 0.00 | 30 | 1011.5 |
| 20260507162555 | 58 | 360 | 4.0 | 10.0 | 0.00 | 0.00 | 0.00 | 31 | 1011.5 |
| 20260507162057 | 57 | 32 | 2.0 | 11.0 | 0.00 | 0.00 | 0.00 | 34 | 1011.5 |
| 20260507161605 | 56 | 190 | 1.0 | 11.0 | 0.00 | 0.00 | 0.00 | 33 | 1011.5 |
| 20260507161055 | 57 | 0 | 5.0 | 11.0 | 0.00 | 0.00 | 0.00 | 32 | 1011.6 |
| 20260507160558 | 57 | 337 | 2.0 | 5.0 | 0.00 | 0.00 | 0.00 | 34 | 1011.5 |
| 20260507160056 | 57 | 212 | 1.0 | 4.0 | 0.00 | 0.00 | 0.00 | 33 | 1011.6 |
| 20260507155554 | 57 | 217 | 1.0 | 6.0 | 0.00 | 0.00 | 0.00 | 35 | 1011.5 |
| 20260507155101 | 57 | 296 | 2.0 | 10.0 | 0.00 | 0.00 | 0.00 | 32 | 1011.5 |
| 20260507154603 | 56 | 329 | 3.0 | 10.0 | 0.00 | 0.00 | 0.00 | 35 | 1011.6 |
| 20260507154058 | 56 | 360 | 1.0 | 8.0 | 0.00 | 0.00 | 0.00 | 34 | 1011.5 |
| 20260507153557 | 56 | 0 | 2.0 | 10.0 | 0.00 | 0.00 | 0.00 | 33 | 1011.4 |
| 20260507153108 | 55 | 39 | 4.0 | 10.0 | 0.00 | 0.00 | 0.00 | 33 | 1011.5 |
| 20260507152558 | 55 | 9 | 1.0 | 8.0 | 0.00 | 0.00 | 0.00 | 37 | 1011.4 |
| 20260507152055 | 55 | 306 | 3.0 | 9.0 | 0.00 | 0.00 | 0.00 | 35 | 1011.5 |
| 20260507151556 | 54 | 360 | 3.0 | 12.0 | 0.00 | 0.00 | 0.00 | 38 | 1011.5 |
| 20260507151055 | 54 | 9 | 7.0 | 12.0 | 0.00 | 0.00 | 0.00 | 34 | 1011.5 |
| 20260507150555 | 54 | 69 | 0.0 | 6.0 | 0.00 | 0.00 | 0.00 | 37 | 1011.5 |
| 20260507150108 | 54 | 211 | 2.0 | 6.0 | 0.00 | 0.00 | 0.00 | 37 | 1011.4 |
| 20260507145556 | 53 | 68 | 1.0 | 6.0 | 0.00 | 0.00 | 0.00 | 38 | 1011.4 |
| 20260507145058 | 53 | 0 | 2.0 | 6.0 | 0.00 | 0.00 | 0.00 | 40 | 1011.4 |
| 20260507144602 | 53 | 138 | 2.0 | 7.0 | 0.00 | 0.00 | 0.00 | 38 | 1011.4 |
| 20260507144059 | 53 | 88 | 2.0 | 7.0 | 0.00 | 0.00 | 0.00 | 40 | 1011.4 |
| 20260507143556 | 52 | 50 | 1.0 | 7.0 | 0.00 | 0.00 | 0.00 | 41 | 1011.4 |
| 20260507143108 | 52 | 92 | 1.0 | 4.0 | 0.00 | 0.00 | 0.00 | 42 | 1011.5 |
| 20260507142557 | 51 | 133 | 2.0 | 7.0 | 0.00 | 0.00 | 0.00 | 44 | 1011.5 |
| 20260507142055 | 51 | 94 | 1.0 | 8.0 | 0.00 | 0.00 | 0.00 | 45 | 1011.4 |
| 20260507141559 | 51 | 113 | 1.0 | 8.0 | 0.00 | 0.00 | 0.00 | 45 | 1011.5 |
| 20260507141055 | 50 | 103 | 4.0 | 8.0 | 0.00 | 0.00 | 0.00 | 47 | 1011.5 |
| 20260507140555 | 49 | 136 | 4.0 | 8.0 | 0.00 | 0.00 | 0.00 | 46 | 1011.4 |
| 20260507140103 | 48 | 123 | 4.0 | 8.0 | 0.00 | 0.00 | 0.00 | 48 | 1011.4 |
| 20260507135555 | 48 | 130 | 5.0 | 8.0 | 0.00 | 0.00 | 0.00 | 49 | 1011.3 |
| 20260507135057 | 47 | 115 | 4.0 | 8.0 | 0.00 | 0.00 | 0.00 | 52 | 1011.4 |
| 20260507134557 | 46 | 128 | 4.0 | 8.0 | 0.00 | 0.00 | 0.00 | 52 | 1011.4 |
| 20260507134057 | 45 | 123 | 3.0 | 8.0 | 0.00 | 0.00 | 0.00 | 55 | 1011.3 |
| 20260507133554 | 44 | 111 | 4.0 | 8.0 | 0.00 | 0.00 | 0.00 | 56 | 1011.4 |
| 20260507133058 | 44 | 109 | 4.0 | 8.0 | 0.00 | 0.00 | 0.00 | 57 | 1011.3 |
| 20260507132558 | 43 | 120 | 3.0 | 7.0 | 0.00 | 0.00 | 0.00 | 57 | 1011.3 |
| 20260507132055 | 43 | 126 | 4.0 | 9.0 | 0.00 | 0.00 | 0.00 | 58 | 1011.3 |
| 20260507131558 | 42 | 119 | 4.0 | 9.0 | 0.00 | 0.00 | 0.00 | 58 | 1011.3 |
| 20260507131055 | 42 | 121 | 4.0 | 9.0 | 0.00 | 0.00 | 0.00 | 58 | 1011.3 |
| 20260507130555 | 41 | 110 | 5.0 | 9.0 | 0.00 | 0.00 | 0.00 | 58 | 1011.3 |
| 20260507130106 | 41 | 111 | 5.0 | 9.0 | 0.00 | 0.00 | 0.00 | 58 | 1011.5 |
| 20260507125554 | 40 | 101 | 5.0 | 11.0 | 0.00 | 0.00 | 0.00 | 59 | 1011.4 |
| 20260507125055 | 40 | 82 | 6.0 | 11.0 | 0.00 | 0.00 | 0.00 | 59 | 1011.4 |
| 20260507124600 | 40 | 87 | 6.0 | 10.0 | 0.00 | 0.00 | 0.00 | 60 | 1011.4 |
| 20260507124058 | 39 | 110 | 8.0 | 10.0 | 0.00 | 0.00 | 0.00 | 60 | 1011.4 |
| 20260507123555 | 38 | 55 | 7.0 | 10.0 | 0.00 | 0.00 | 0.00 | 62 | 1011.4 |
| 20260507123058 | 38 | 94 | 6.0 | 10.0 | 0.00 | 0.00 | 0.00 | 63 | 1011.4 |
| 20260507122557 | 37 | 99 | 6.0 | 10.0 | 0.00 | 0.00 | 0.00 | 64 | 1011.4 |
| 20260507122057 | 37 | 94 | 6.0 | 10.0 | 0.00 | 0.00 | 0.00 | 64 | 1011.3 |
| 20260507121600 | 36 | 92 | 5.0 | 8.0 | 0.00 | 0.00 | 0.00 | 66 | 1011.3 |
| 20260507121102 | 36 | 109 | 3.0 | 8.0 | 0.00 | 0.00 | 0.00 | 66 | 1011.3 |
| 20260507120557 | 36 | 107 | 4.0 | 7.0 | 0.00 | 0.00 | 0.00 | 66 | 1011.2 |
| 20260507120057 | 35 | 103 | 3.0 | 7.0 | 0.00 | 0.00 | 0.00 | 66 | 1011.1 |
| 20260507115557 | 35 | 102 | 4.0 | 7.0 | 0.00 | 0.00 | 0.00 | 65 | 1011.1 |
| 20260507115056 | 35 | 100 | 5.0 | 7.0 | 0.00 | 0.00 | 0.00 | 65 | 1011.0 |
| 20260507114601 | 35 | 91 | 3.0 | 10.0 | 0.00 | 0.00 | 0.00 | 65 | 1010.9 |
| 20260507114054 | 35 | 88 | 4.0 | 10.0 | 0.00 | 0.00 | 0.00 | 64 | 1010.9 |
| 20260507113557 | 35 | 106 | 5.0 | 10.0 | 0.00 | 0.00 | 0.00 | 64 | 1011.0 |
| 20260507113057 | 35 | 85 | 5.0 | 10.0 | 0.00 | 0.00 | 0.00 | 64 | 1011.1 |
| 20260507112559 | 35 | 75 | 5.0 | 10.0 | 0.00 | 0.00 | 0.00 | 63 | 1011.1 |
| 20260507112056 | 36 | 69 | 4.0 | 10.0 | 0.00 | 0.00 | 0.00 | 63 | 1011.3 |
| 20260507111557 | 36 | 77 | 4.0 | 8.0 | 0.00 | 0.00 | 0.00 | 63 | 1011.3 |
| 20260507111056 | 36 | 82 | 4.0 | 9.0 | 0.00 | 0.00 | 0.00 | 63 | 1011.4 |
| 20260507110557 | 36 | 58 | 4.0 | 10.0 | 0.00 | 0.00 | 0.00 | 64 | 1011.3 |
| 20260507105557 | 36 | 72 | 5.0 | 10.0 | 0.00 | 0.00 | 0.00 | 64 | 1011.4 |
| 20260507105057 | 36 | 91 | 6.0 | 10.0 | 0.00 | 0.00 | 0.00 | 64 | 1011.5 |
| 20260507104603 | 36 | 74 | 3.0 | 9.0 | 0.00 | 0.00 | 0.00 | 65 | 1011.4 |
| 20260507104057 | 36 | 74 | 4.0 | 9.0 | 0.00 | 0.00 | 0.00 | 66 | 1011.4 |
| 20260507103556 | 36 | 71 | 5.0 | 9.0 | 0.00 | 0.00 | 0.00 | 66 | 1011.5 |
| 20260507103129 | 36 | 99 | 4.0 | 10.0 | 0.00 | 0.00 | 0.00 | 66 | 1011.5 |
| 20260507102557 | 36 | 63 | 4.0 | 10.0 | 0.00 | 0.00 | 0.00 | 66 | 1011.8 |
| 20260507102055 | 36 | 69 | 4.0 | 10.0 | 0.00 | 0.00 | 0.00 | 66 | 1011.8 |
| 20260507101558 | 36 | 67 | 3.0 | 10.0 | 0.00 | 0.00 | 0.00 | 65 | 1011.9 |
| 20260507101054 | 36 | 63 | 3.0 | 12.0 | 0.00 | 0.00 | 0.00 | 65 | 1011.9 |
| 20260507100556 | 36 | 68 | 4.0 | 12.0 | 0.00 | 0.00 | 0.00 | 64 | 1011.8 |
| 20260507100108 | 36 | 76 | 4.0 | 9.0 | 0.00 | 0.00 | 0.00 | 64 | 1011.7 |
| 20260507095558 | 36 | 53 | 4.0 | 9.0 | 0.00 | 0.00 | 0.00 | 63 | 1011.8 |
| 20260507095056 | 36 | 56 | 4.0 | 7.0 | 0.00 | 0.00 | 0.00 | 63 | 1012.0 |